Regional Weather Roundup
Issued by NWS

Home | Current Version | Previous Version | Text Only | Print | Product List | Glossary Off
Versions: 1 2 3 4 5 6 7 8 9 10 11 12 13 14 15 16 17 18 19 20 21 22 23 24 25 26 27 28 29 30 31 32 33 34 35 36 37 38 39 40 41 42 43 44 45 46 47 48 49 50

000
ASUS43 KMKX 181000
RWRWI

WISCONSIN REGIONAL WEATHER ROUNDUP
NATIONAL WEATHER SERVICE MILWAUKEE/SULLIVAN WI
400 AM CST WED JAN 18 2017

NOTE: "FAIR" INDICATES FEW OR NO CLOUDS BELOW 12,000 FEET WITH NO
SIGNIFICANT WEATHER AND/OR OBSTRUCTIONS TO VISIBILITY.

WIZ001-002-006>008-014>016-023>028-181100-
NORTHWEST WISCONSIN

CITY           SKY/WX    TMP DP  RH WIND       PRES   REMARKS
SUPERIOR ARPT  CLOUDY    26  23  89 SW10      29.85F WCI  16
ASHLAND        CLOUDY    28  24  85 SW12      29.86S WCI  18
HAYWARD        CLOUDY    29  26  89 S14       29.90F WCI  18
SIREN          CLOUDY    28  26  92 S6        29.92F WCI  22
CUMBERLAND     CLOUDY    28  27  93 SW12      29.93S FOG     WCI  18
RICE LAKE      CLOUDY    30  28  94 SW8       29.96S FOG     WCI  22
CHETEK         NOT AVBL
LADYSMITH      CLOUDY    31  30  98 SW9       29.94S WCI  22
EAU CLAIRE     NOT AVBL
MENOMONIE      CLOUDY    30  28  93 MISG      29.98S
NEW RICHMOND   CLOUDY    28  28  97 S8        29.96S WCI  20
OSCEOLA        CLOUDY    29  29 100 S6        29.98S WCI  23
$$

WIZ003>005-009-010-017-018-181100-
NORTH CENTRAL WISCONSIN

CITY           SKY/WX    TMP DP  RH WIND       PRES   REMARKS
MANITOWISH WTR NOT AVBL
ARBOR VITAE    FOG       25  23  93 SW5       29.88R VSB 3/4 WCI  19
WOODRUFF       FOG       25  23  93 SW5       29.88R VSB 3/4 WCI  19
RHINELANDER    FOG       28  27  96 SW10      29.90R VSB 1/2 WCI  19
EAGLE RIVER    CLOUDY    19  19  99 CALM      29.87S
LAND O LAKES   CLEAR     13  11  94 CALM      29.88S
PHILLIPS       CLOUDY   N/A N/A N/A SW8       29.90S HAZE
TOMAHAWK       CLOUDY    27  26  96 SW3       29.91S FOG
MEDFORD        FOG       28  28  99 SW6       29.93S VSB 1/4 WCI  22
MERRILL        FOG       28  28 100 CALM        N/A  VSB 3/4
$$

WIZ029-030-035-036-043>047-181100-
CENTRAL WISCONSIN

CITY           SKY/WX    TMP DP  RH WIND       PRES   REMARKS
WAUSAU         FOG       28  28 100 SW8       29.94S VSB 3/4 WCI  20
MOSINEE        SNOW      30  30 100 SW7       29.97S VSB 1/4 WCI  23
MARSHFIELD     FOG       30  29  96 SW12      29.96R VSB 1/4 WCI  20
STEVENS POINT  FOG       29  29 100 SW6       29.98S VSB 1/2 WCI  23
WAUPACA        CLOUDY    34  32  94 SW8       29.99S FOG     WCI  27
WAUTOMA        FOG       32  32 100 SW10      30.01S VSB 1   WCI  24
WISC RAPIDS    FOG       32  32 100 SW12      30.00S VSB 3/4 WCI  23
CAMP DOUGLAS   NOT AVBL
$$

WIZ011>013-019>022-031-037>040-048>050-181100-
NORTHEAST WISCONSIN

CITY           SKY/WX    TMP DP  RH WIND       PRES   REMARKS
ANTIGO         FOG       21  21  98 SW6       29.92F VSB 1/4 WCI  14
SHAWANO        CLOUDY    32  32  98 CALM      29.96S FOG
OCONTO         CLOUDY    31  31 100 SW5       29.95F VSB 1/2 WCI  26
STURGEON BAY   FOG       32  31  96 SW7       29.96S VSB 1/4 WCI  26
GREEN BAY      FOG       34  34 100 SW9       29.98R VSB 1   WCI  27
MANITOWOC      FOG       34  32  93 MISG      29.99S VSB 1/2
APPLETON       FOG       32  32 100 W10       29.97S VSB 1/4 WCI  24
CLINTONVILLE   CLOUDY    32  32 100 SW8       29.98R FOG     WCI  25
OSHKOSH        FOG       32  32 100 W8        29.99S VSB 1/2 WCI  25
$$

WIZ032>034-041-042-053>061-181100-
SOUTHWEST WISCONSIN

CITY           SKY/WX    TMP DP  RH WIND       PRES   REMARKS
LA CROSSE      CLOUDY    35  30  82 S9        30.04S WCI  28
SPARTA         CLOUDY    31  31 100 SW5       30.03F FOG     WCI  26
VIROQUA        CLOUDY    32  32 100 SW8       30.02S VSB 1/4 WCI  24
BOSCOBEL       CLOUDY    34  32  92 SW7       30.07F WCI  28
PRAIRIE DU CHI CLOUDY    33  32  95 SW6       30.08S WCI  27
PLATTEVILLE    CLOUDY    32  32 100 W10       30.08R VSB 1/2 WCI  24
$$

WIZ056-057-062-063-064-067-068-181100-
SOUTH CENTRAL WISCONSIN

CITY           SKY/WX    TMP DP  RH WIND       PRES   REMARKS
REEDSBURG      FOG       32  32 100 W12       30.03S VSB 1   WCI  23
BARABOO/DELLS  FOG       32  32  99 W10       30.02S VSB 1/4 WCI  24
LONE ROCK      CLOUDY    33  31  92 W12       30.06S FOG     WCI  24
MINERAL POINT  FOG       32  32 100 W9        30.06R VSB 3/4 WCI  24
MADISON        CLOUDY    33  32  96 VRB7      30.05R FOG     WCI  27
MIDDLETON      CLOUDY    34  34 100 W12       30.04S WCI  26
WATERTOWN      CLOUDY    33  33 100 W6        30.03R FOG     WCI  28
MONROE         FOG       32  32 100 W12       30.06R VSB 1/2 WCI  23
JANESVILLE     CLOUDY    36  36 100 W8        30.06R FOG     WCI  29
$$

WIZ051-052-058>065-066-070>072-181100-
SOUTHEAST WISCONSIN

CITY           SKY/WX    TMP DP  RH WIND       PRES   REMARKS
MILWAUKEE      CLOUDY    36  33  89 SW7       30.03R FOG     WCI  30
WAUKESHA       CLOUDY    32  32 100 SW5       30.03R FOG     WCI  27
MILWAUKEE/TIMM CLOUDY    34  32  93 SW6       30.03R FOG     WCI  29
RACINE         CLOUDY    35  33  92 W8        30.05R WCI  29
KENOSHA        CLOUDY    34  33  96 SW9       30.05R FOG     WCI  27
FOND DU LAC    FOG       33  30  88 W10       30.01R VSB 1/2 WCI  25
SHEBOYGAN      CLOUDY    34  32  92 W10       29.99R FOG     WCI  26
WEST BEND      CLOUDY    34  34 100 W5        30.01R FOG     WCI  30
JUNEAU         FOG       33  32  99 SW7       30.03R VSB 1/4 WCI  26
$$

LSZ147-162-181100-
LAKE SUPERIOR

STATION/POSITION TIME  TEMP    WIND        PRES    WAVE
                       AIR SEA DIR/SP/G            HT/PER
                 (UTC) (F)     (DEG/KT/KT) (MB)    (FT/S)
DEVILS ISLAND    0900   31     230/ 15/ 19 1010.7F
PORT WING        0930   29     200/  7/ 11 1010.5F
SAXON HARBOR     0940   31     200/ 10/ 16 1010.8S
$$

LMZ867-665-643>646-181100-
LAKE MICHIGAN

STATION/POSITION TIME  TEMP    WIND        PRES    WAVE
                       AIR SEA DIR/SP/G            HT/PER
                 (UTC) (F)     (DEG/KT/KT) (MB)    (FT/S)
NORTHPORT PIER   0940   33      CALM  /  9 1014.2S
SISTER BAY       0850   34        CALM       N/A
ALGOMA LAKESHORE 0854             CALM       N/A
KEWAUNEE LAKESHO 0930   33     250/  3/  5 1014.6R
SHEBOYGAN LAKESH 0900   35     250/  7/  8 1015.9R
PORT WASHINGTON  0940   35     280/  6/  9 1016.9R
MILWAUKEE LAKESH 0930   36     280/  7/  9   N/A
KENOSHA   LAKESH 0900   35     270/  8/ 11 1017.3
$$

TC  - TEMPERATURE IN CELSIUS
VSB - VISIBILITY IN STATUTE MILES
WCI - WIND CHILL INDEX
HX  - HEAT INDEX




USA.gov is the U.S. government's official web portal to all federal, state and local government web resources and services.